WJA019 CYYC-CYWG

Flight info

Callsign WJA019
Flight time 1h 35m
Altitude 37000
Route LOMLO Q961 DAPOP DCT DURUR DCT SEGAP BEFAN5
Aircraft B738/M-SDE2E3FGHIRWXY/LB1

Departure

Time 2026-05-04 18:35
Airport Calgary International Airport (CYYC)

Arrival

Time 2026-05-04 20:10
Airport Winnipeg / James Armstrong Richardson International Airport (CYWG)
Time Latitude Longitude Altitude Speed Heading
2026-05-04 17:45 51.13231 -114.01385 3558 ft 0 kts 41°
2026-05-04 18:15 51.13220 -114.01401 3555 ft 2 kts 41°
2026-05-04 18:16 51.13208 -114.01419 3556 ft 2 kts 41°
2026-05-04 18:16 51.13195 -114.01435 3557 ft 2 kts 26°
2026-05-04 18:16 51.13180 -114.01441 3553 ft 2 kts 340°
2026-05-04 18:17 51.13170 -114.01433 3556 ft 0 kts 318°
2026-05-04 18:19 51.13172 -114.01448 3558 ft 2 kts 278°
2026-05-04 18:20 51.13169 -114.01465 3558 ft 2 kts 253°
2026-05-04 18:20 51.13161 -114.01503 3558 ft 5 kts 250°
2026-05-04 18:20 51.13155 -114.01565 3558 ft 6 kts 270°
2026-05-04 18:20 51.13154 -114.01629 3558 ft 6 kts 261°
2026-05-04 18:21 51.13136 -114.01684 3557 ft 6 kts 230°
2026-05-04 18:21 51.13112 -114.01733 3555 ft 6 kts 233°
2026-05-04 18:21 51.13087 -114.01778 3558 ft 5 kts 217°
2026-05-04 18:21 51.13047 -114.01795 3556 ft 7 kts 182°
2026-05-04 18:22 51.12982 -114.01795 3558 ft 11 kts 179°
2026-05-04 18:22 51.12905 -114.01794 3558 ft 11 kts 181°
2026-05-04 18:22 51.12831 -114.01795 3556 ft 11 kts 180°
2026-05-04 18:22 51.12758 -114.01795 3556 ft 10 kts 180°
2026-05-04 18:23 51.12688 -114.01796 3558 ft 10 kts 180°
2026-05-04 18:23 51.12617 -114.01796 3558 ft 11 kts 179°
2026-05-04 18:23 51.12541 -114.01796 3557 ft 11 kts 180°
2026-05-04 18:23 51.12461 -114.01796 3558 ft 12 kts 179°
2026-05-04 18:24 51.12377 -114.01795 3558 ft 12 kts 180°
2026-05-04 18:24 51.12294 -114.01795 3558 ft 12 kts 180°
2026-05-04 18:24 51.12214 -114.01796 3558 ft 11 kts 180°
2026-05-04 18:24 51.12145 -114.01796 3558 ft 6 kts 180°
2026-05-04 18:25 51.12135 -114.01796 3558 ft 0 kts 180°
2026-05-04 18:25 51.12114 -114.01796 3558 ft 6 kts 180°
2026-05-04 18:25 51.12058 -114.01795 3559 ft 10 kts 180°
2026-05-04 18:25 51.11978 -114.01796 3558 ft 13 kts 180°
2026-05-04 18:26 51.11866 -114.01796 3558 ft 18 kts 180°
2026-05-04 18:26 51.11738 -114.01796 3556 ft 18 kts 180°
2026-05-04 18:26 51.11614 -114.01796 3558 ft 18 kts 180°
2026-05-04 18:26 51.11494 -114.01795 3558 ft 17 kts 180°
2026-05-04 18:27 51.11378 -114.01796 3555 ft 16 kts 180°
2026-05-04 18:27 51.11266 -114.01796 3555 ft 16 kts 180°
2026-05-04 18:27 51.11159 -114.01797 3557 ft 15 kts 180°
2026-05-04 18:27 51.11057 -114.01797 3557 ft 14 kts 180°
2026-05-04 18:28 51.10958 -114.01798 3556 ft 14 kts 180°
2026-05-04 18:28 51.10864 -114.01798 3558 ft 13 kts 180°
2026-05-04 18:28 51.10774 -114.01798 3556 ft 13 kts 180°
2026-05-04 18:28 51.10686 -114.01798 3558 ft 12 kts 179°
2026-05-04 18:29 51.10601 -114.01797 3558 ft 12 kts 180°
2026-05-04 18:29 51.10520 -114.01797 3558 ft 10 kts 180°
2026-05-04 18:29 51.10500 -114.01797 3558 ft 0 kts 180°
2026-05-04 18:29 51.10497 -114.01797 3558 ft 1 kts 180°
2026-05-04 18:30 51.10433 -114.01799 3559 ft 9 kts 180°
2026-05-04 18:30 51.10351 -114.01799 3557 ft 15 kts 180°
2026-05-04 18:30 51.10234 -114.01799 3558 ft 19 kts 180°
2026-05-04 18:31 51.10087 -114.01798 3558 ft 23 kts 180°
2026-05-04 18:31 51.09924 -114.01798 3558 ft 23 kts 180°
2026-05-04 18:31 51.09790 -114.01798 3558 ft 16 kts 180°
2026-05-04 18:31 51.09707 -114.01818 3557 ft 11 kts 216°
2026-05-04 18:32 51.09689 -114.01920 3558 ft 7 kts 270°
2026-05-04 18:32 51.09689 -114.01953 3559 ft 0 kts 271°
2026-05-04 18:33 51.09689 -114.01966 3559 ft 5 kts 271°
2026-05-04 18:33 51.09690 -114.02035 3559 ft 7 kts 271°
2026-05-04 18:33 51.09693 -114.02119 3560 ft 7 kts 292°
2026-05-04 18:34 51.09736 -114.02140 3556 ft 6 kts
2026-05-04 18:34 51.09845 -114.02140 3559 ft 40 kts 360°
2026-05-04 18:34 51.10389 -114.02141 3553 ft 115 kts 360°
2026-05-04 18:34 51.11396 -114.02141 3613 ft 173 kts 360°
2026-05-04 18:35 51.12650 -114.02120 4543 ft 177 kts 360°
2026-05-04 18:35 51.13899 -114.02117 5542 ft 179 kts 358°
2026-05-04 18:35 51.15136 -114.02147 6396 ft 180 kts 356°
2026-05-04 18:35 51.16449 -114.02278 6773 ft 198 kts 354°
2026-05-04 18:36 51.17908 -114.02453 6991 ft 227 kts 354°
2026-05-04 18:36 51.19592 -114.02663 7013 ft 253 kts 355°
2026-05-04 18:36 51.21307 -114.02205 7114 ft 259 kts 23°
2026-05-04 18:36 51.22776 -114.00448 7866 ft 266 kts 43°
2026-05-04 18:37 51.23763 -113.97907 8764 ft 277 kts 64°
2026-05-04 18:37 51.24065 -113.94811 9659 ft 293 kts 88°
2026-05-04 18:37 51.23559 -113.91574 10401 ft 309 kts 108°
2026-05-04 18:37 51.22647 -113.88426 11145 ft 316 kts 111°
2026-05-04 18:38 51.21643 -113.85275 11818 ft 324 kts 112°
2026-05-04 18:38 51.20573 -113.81968 12170 ft 344 kts 112°
2026-05-04 18:38 51.19467 -113.78530 12828 ft 352 kts 112°
2026-05-04 18:38 51.18352 -113.75025 13594 ft 357 kts 112°
2026-05-04 18:39 51.17228 -113.71456 14283 ft 362 kts 111°
2026-05-04 18:39 51.16095 -113.67829 14929 ft 369 kts 111°
2026-05-04 18:39 51.14945 -113.64137 15535 ft 375 kts 111°
2026-05-04 18:39 51.13780 -113.60391 16170 ft 381 kts 111°
2026-05-04 18:40 51.12594 -113.56580 16814 ft 387 kts 111°
2026-05-04 18:40 51.11388 -113.52712 17407 ft 393 kts 111°
2026-05-04 18:40 51.10176 -113.48831 18003 ft 399 kts 111°
2026-05-04 18:40 51.08912 -113.44791 18579 ft 405 kts 111°
2026-05-04 18:41 51.07719 -113.40778 19103 ft 407 kts 105°
2026-05-04 18:41 51.06886 -113.36512 19683 ft 401 kts 94°
2026-05-04 18:41 51.06521 -113.32100 20282 ft 396 kts 85°
2026-05-04 18:41 51.06314 -113.27779 20845 ft 399 kts 85°
2026-05-04 18:42 51.06084 -113.23356 21393 ft 404 kts 85°
2026-05-04 18:42 51.05819 -113.18888 21933 ft 408 kts 86°
2026-05-04 18:42 51.05511 -113.14319 22494 ft 412 kts 87°
2026-05-04 18:42 51.05187 -113.09772 23048 ft 415 kts 87°
2026-05-04 18:43 51.04855 -113.05197 23590 ft 419 kts 86°
2026-05-04 18:43 51.04520 -113.00580 24039 ft 422 kts 86°
2026-05-04 18:43 51.04187 -112.95994 24494 ft 424 kts 86°
2026-05-04 18:43 51.03844 -112.91264 24944 ft 426 kts 86°
2026-05-04 18:44 51.03507 -112.86633 25380 ft 429 kts 86°
2026-05-04 18:44 51.03392 -112.85046 25526 ft 430 kts 86°
2026-05-04 18:44 51.02818 -112.77164 26236 ft 434 kts 86°
2026-05-04 18:44 51.02464 -112.72331 26661 ft 436 kts 86°
2026-05-04 18:45 51.02110 -112.67528 27082 ft 439 kts 86°
2026-05-04 18:45 51.01751 -112.62692 27497 ft 442 kts 86°
2026-05-04 18:45 51.01393 -112.57897 27873 ft 444 kts 86°
2026-05-04 18:45 51.01027 -112.53011 28272 ft 447 kts 85°
2026-05-04 18:46 51.00656 -112.48097 28671 ft 449 kts 85°
2026-05-04 18:46 51.00280 -112.43150 29038 ft 452 kts 85°
2026-05-04 18:46 50.99902 -112.38191 29416 ft 454 kts 85°
2026-05-04 18:46 50.99518 -112.33194 29772 ft 457 kts 85°
2026-05-04 18:47 50.99130 -112.28175 30110 ft 459 kts 85°
2026-05-04 18:47 50.98738 -112.23131 30410 ft 462 kts 85°
2026-05-04 18:47 50.98342 -112.18060 30704 ft 464 kts 85°
2026-05-04 18:47 50.97936 -112.12898 30997 ft 466 kts 85°
2026-05-04 18:48 50.97532 -112.07796 31277 ft 468 kts 85°
2026-05-04 18:48 50.97124 -112.02656 31557 ft 470 kts 86°
2026-05-04 18:48 50.96712 -111.97507 31827 ft 472 kts 86°
2026-05-04 18:48 50.96295 -111.92328 32099 ft 474 kts 86°
2026-05-04 18:49 50.95875 -111.87131 32352 ft 476 kts 86°
2026-05-04 18:49 50.95451 -111.81910 32599 ft 478 kts 86°
2026-05-04 18:49 50.95022 -111.76666 32835 ft 480 kts 86°
2026-05-04 18:49 50.94590 -111.71416 33067 ft 482 kts 86°
2026-05-04 18:50 50.94153 -111.66137 33303 ft 484 kts 86°
2026-05-04 18:50 50.93713 -111.60844 33535 ft 485 kts 86°
2026-05-04 18:50 50.93270 -111.55534 33760 ft 487 kts 86°
2026-05-04 18:50 50.92822 -111.50210 33977 ft 488 kts 87°
2026-05-04 18:51 50.92445 -111.44868 34162 ft 485 kts 83°
2026-05-04 18:51 50.92293 -111.41339 34274 ft 484 kts 82°
2026-05-04 18:51 50.92133 -111.36001 34449 ft 484 kts 82°
2026-05-04 18:51 50.92007 -111.30671 34624 ft 485 kts 82°
2026-05-04 18:52 50.91883 -111.25315 34787 ft 487 kts 82°
2026-05-04 18:52 50.91747 -111.19939 34937 ft 489 kts 82°
2026-05-04 18:52 50.91596 -111.14552 35103 ft 490 kts 83°
2026-05-04 18:52 50.91431 -111.09143 35272 ft 491 kts 83°
2026-05-04 18:53 50.91257 -111.03746 35491 ft 491 kts 84°
2026-05-04 18:53 50.91076 -110.98343 35744 ft 490 kts 84°
2026-05-04 18:53 50.90893 -110.92963 35966 ft 489 kts 84°
2026-05-04 18:53 50.90709 -110.87574 36171 ft 489 kts 84°
2026-05-04 18:54 50.90523 -110.82187 36375 ft 489 kts 85°
2026-05-04 18:54 50.90336 -110.76816 36571 ft 489 kts 85°
2026-05-04 18:54 50.90147 -110.71425 36771 ft 489 kts 85°
2026-05-04 18:54 50.89956 -110.66068 36970 ft 488 kts 85°
2026-05-04 18:55 50.89762 -110.60691 37101 ft 489 kts 86°
2026-05-04 18:55 50.89163 -110.44502 37105 ft 490 kts 86°
2026-05-04 18:56 50.88751 -110.33764 37103 ft 487 kts 86°
2026-05-04 18:56 50.88333 -110.23080 37099 ft 485 kts 86°
2026-05-04 18:57 50.87908 -110.12433 37107 ft 484 kts 86°
2026-05-04 18:57 50.87475 -110.01787 37106 ft 485 kts 87°
2026-05-04 18:58 50.87143 -109.91082 37115 ft 489 kts 85°
2026-05-04 18:58 50.86966 -109.80269 37106 ft 493 kts 85°
2026-05-04 18:59 50.86781 -109.69395 37096 ft 495 kts 85°
2026-05-04 18:59 50.86559 -109.58498 37086 ft 495 kts 85°
2026-05-04 19:00 50.86312 -109.47606 37079 ft 495 kts 86°
2026-05-04 19:00 50.86054 -109.36736 37077 ft 493 kts 86°
2026-05-04 19:01 50.85787 -109.25901 37083 ft 492 kts 86°
2026-05-04 19:01 50.85513 -109.15101 37070 ft 490 kts 86°
2026-05-04 19:02 50.85230 -109.04334 37074 ft 489 kts 86°
2026-05-04 19:02 50.84939 -108.93593 37072 ft 488 kts 86°
2026-05-04 19:03 50.84637 -108.82867 37073 ft 488 kts 87°
2026-05-04 19:03 50.84327 -108.72155 37072 ft 487 kts 87°
2026-05-04 19:04 50.84006 -108.61445 37071 ft 487 kts 87°
2026-05-04 19:04 50.83676 -108.50749 37070 ft 486 kts 87°
2026-05-04 19:05 50.83336 -108.40061 37071 ft 486 kts 88°
2026-05-04 19:05 50.82986 -108.29361 37065 ft 487 kts 88°
2026-05-04 19:06 50.82626 -108.18660 37058 ft 487 kts 88°
2026-05-04 19:06 50.82257 -108.07960 37056 ft 487 kts 88°
2026-05-04 19:07 50.81877 -107.97257 37053 ft 488 kts 88°
2026-05-04 19:07 50.81484 -107.86471 37051 ft 488 kts 88°
2026-05-04 19:08 50.81085 -107.75756 37046 ft 488 kts 89°
2026-05-04 19:08 50.80678 -107.65120 37046 ft 488 kts 89°
2026-05-04 19:09 50.80255 -107.54340 37049 ft 488 kts 89°
2026-05-04 19:09 50.79826 -107.43627 37057 ft 488 kts 89°
2026-05-04 19:10 50.79387 -107.32920 37052 ft 488 kts 89°
2026-05-04 19:10 50.78938 -107.22207 37051 ft 489 kts 89°
2026-05-04 19:11 50.78478 -107.11481 37048 ft 488 kts 89°
2026-05-04 19:11 50.78009 -107.00774 37048 ft 488 kts 90°
2026-05-04 19:12 50.77288 -106.84714 37037 ft 489 kts 90°
2026-05-04 19:13 50.76794 -106.73999 37035 ft 489 kts 90°
2026-05-04 19:13 50.76290 -106.63293 37037 ft 489 kts 90°
2026-05-04 19:14 50.75776 -106.52569 37028 ft 489 kts 90°
2026-05-04 19:14 50.75252 -106.41849 37026 ft 489 kts 90°
2026-05-04 19:15 50.74719 -106.31140 37027 ft 489 kts 90°
2026-05-04 19:15 50.74175 -106.20429 37026 ft 490 kts 91°
2026-05-04 19:16 50.73622 -106.09707 37020 ft 490 kts 91°
2026-05-04 19:16 50.73058 -105.98991 37022 ft 490 kts 91°
2026-05-04 19:17 50.72484 -105.88259 37016 ft 490 kts 91°
2026-05-04 19:17 50.71900 -105.77534 37016 ft 491 kts 91°
2026-05-04 19:18 50.71306 -105.66802 37012 ft 491 kts 91°
2026-05-04 19:18 50.70701 -105.56056 37010 ft 491 kts 91°
2026-05-04 19:19 50.70086 -105.45313 37008 ft 491 kts 91°
2026-05-04 19:19 50.69461 -105.34570 37005 ft 492 kts 91°
2026-05-04 19:20 50.68826 -105.23825 37002 ft 492 kts 92°
2026-05-04 19:20 50.68180 -105.13077 36997 ft 492 kts 92°
2026-05-04 19:21 50.67526 -105.02330 36986 ft 492 kts 92°
2026-05-04 19:21 50.66862 -104.91586 36972 ft 492 kts 92°
2026-05-04 19:22 50.65809 -104.80893 36977 ft 495 kts 98°
2026-05-04 19:22 50.64354 -104.70271 36959 ft 496 kts 99°
2026-05-04 19:23 50.62872 -104.59656 36960 ft 496 kts 99°
2026-05-04 19:23 50.61430 -104.49031 36954 ft 496 kts 99°
2026-05-04 19:24 50.60004 -104.38398 36956 ft 496 kts 99°
2026-05-04 19:24 50.58574 -104.27761 36949 ft 497 kts 99°
2026-05-04 19:25 50.57376 -104.18924 36951 ft 497 kts 99°
2026-05-04 19:25 50.55921 -104.08279 36947 ft 497 kts 99°
2026-05-04 19:26 50.54459 -103.97663 36947 ft 497 kts 99°
2026-05-04 19:26 50.52984 -103.87033 36939 ft 498 kts 99°
2026-05-04 19:27 50.51500 -103.76414 36933 ft 498 kts 99°
2026-05-04 19:27 50.50005 -103.65788 36928 ft 498 kts 99°
2026-05-04 19:28 50.48499 -103.55164 36924 ft 498 kts 99°
2026-05-04 19:28 50.46984 -103.44545 36916 ft 498 kts 100°
2026-05-04 19:29 50.45458 -103.33929 36916 ft 499 kts 100°
2026-05-04 19:29 50.43922 -103.23317 36909 ft 499 kts 100°
2026-05-04 19:30 50.42377 -103.12716 36904 ft 499 kts 100°
2026-05-04 19:30 50.40820 -103.02104 36903 ft 499 kts 100°
2026-05-04 19:31 50.39252 -102.91496 36896 ft 499 kts 100°
2026-05-04 19:31 50.37678 -102.80912 36891 ft 498 kts 100°
2026-05-04 19:32 50.36096 -102.70346 36884 ft 498 kts 101°
2026-05-04 19:32 50.34505 -102.59797 36883 ft 498 kts 101°
2026-05-04 19:33 50.32905 -102.49256 36882 ft 497 kts 101°
2026-05-04 19:33 50.31298 -102.38735 36878 ft 497 kts 101°
2026-05-04 19:34 50.29683 -102.28231 36876 ft 496 kts 101°
2026-05-04 19:34 50.28059 -102.17738 36869 ft 496 kts 101°
2026-05-04 19:35 50.26425 -102.07252 36872 ft 496 kts 101°
2026-05-04 19:35 50.24783 -101.96782 36862 ft 496 kts 101°
2026-05-04 19:36 50.23130 -101.86306 36861 ft 497 kts 102°
2026-05-04 19:36 50.21466 -101.75827 36859 ft 497 kts 102°
2026-05-04 19:37 50.19792 -101.65354 36856 ft 498 kts 102°
2026-05-04 19:37 50.18105 -101.54863 36852 ft 498 kts 102°
2026-05-04 19:38 50.16406 -101.44369 36848 ft 499 kts 102°
2026-05-04 19:38 50.14697 -101.33874 36842 ft 499 kts 102°
2026-05-04 19:39 50.12977 -101.23376 36833 ft 500 kts 102°
2026-05-04 19:39 50.11246 -101.12879 36829 ft 500 kts 102°
2026-05-04 19:40 50.09504 -101.02385 36831 ft 501 kts 103°
2026-05-04 19:40 50.07750 -100.91878 36827 ft 501 kts 103°
2026-05-04 19:41 50.05979 -100.81328 36250 ft 507 kts 103°
2026-05-04 19:41 50.05090 -100.76063 35866 ft 500 kts 103°
2026-05-04 19:41 50.04206 -100.70844 35406 ft 497 kts 103°
2026-05-04 19:41 50.03327 -100.65674 34957 ft 493 kts 103°
2026-05-04 19:42 50.02451 -100.60531 34493 ft 490 kts 103°
2026-05-04 19:42 50.01578 -100.55419 34047 ft 487 kts 102°
2026-05-04 19:42 50.00709 -100.50343 33541 ft 485 kts 102°
2026-05-04 19:42 49.99842 -100.45296 33058 ft 481 kts 102°
2026-05-04 19:43 49.98980 -100.40291 32597 ft 477 kts 102°
2026-05-04 19:43 49.98112 -100.35271 32138 ft 473 kts 102°
2026-05-04 19:43 49.97260 -100.30349 31708 ft 470 kts 102°
2026-05-04 19:43 49.96412 -100.25467 31283 ft 466 kts 102°
2026-05-04 19:44 49.95568 -100.20624 30869 ft 463 kts 102°
2026-05-04 19:44 49.94728 -100.15810 30440 ft 460 kts 102°
2026-05-04 19:44 49.93892 -100.11033 30022 ft 458 kts 102°
2026-05-04 19:44 49.93058 -100.06276 29544 ft 455 kts 102°
2026-05-04 19:45 49.92236 -100.01604 29074 ft 452 kts 102°
2026-05-04 19:45 49.91410 -99.96924 28661 ft 447 kts 102°
2026-05-04 19:45 49.90743 -99.92255 28204 ft 439 kts 93°
2026-05-04 19:45 49.90455 -99.87572 27816 ft 433 kts 89°
2026-05-04 19:46 49.90273 -99.82936 27388 ft 429 kts 88°
2026-05-04 19:46 49.90118 -99.78331 26986 ft 425 kts 88°
2026-05-04 19:46 49.89955 -99.73705 26582 ft 422 kts 88°
2026-05-04 19:46 49.89781 -99.69230 26198 ft 419 kts 88°
2026-05-04 19:47 49.89589 -99.64738 25807 ft 417 kts 89°
2026-05-04 19:47 49.89385 -99.60258 25417 ft 414 kts 89°
2026-05-04 19:47 49.89175 -99.55817 25032 ft 412 kts 89°
2026-05-04 19:47 49.88961 -99.51407 24651 ft 410 kts 89°
2026-05-04 19:48 49.88745 -99.47011 24271 ft 408 kts 89°
2026-05-04 19:48 49.88525 -99.42581 23876 ft 406 kts 89°
2026-05-04 19:48 49.88310 -99.38281 23488 ft 405 kts 89°
2026-05-04 19:48 49.88088 -99.33886 23037 ft 403 kts 89°
2026-05-04 19:49 49.87872 -99.29618 22614 ft 400 kts 89°
2026-05-04 19:49 49.87653 -99.25333 22220 ft 397 kts 89°
2026-05-04 19:49 49.87430 -99.21021 21825 ft 394 kts 89°
2026-05-04 19:49 49.87211 -99.16806 21459 ft 391 kts 89°
2026-05-04 19:50 49.86995 -99.12675 21083 ft 388 kts 89°
2026-05-04 19:50 49.86775 -99.08475 20710 ft 385 kts 89°
2026-05-04 19:50 49.86557 -99.04350 20338 ft 382 kts 89°
2026-05-04 19:50 49.86340 -99.00269 19977 ft 379 kts 89°
2026-05-04 19:51 49.86122 -98.96205 19612 ft 377 kts 89°
2026-05-04 19:51 49.85905 -98.92175 19249 ft 374 kts 90°
2026-05-04 19:51 49.85687 -98.88166 18889 ft 372 kts 90°
2026-05-04 19:51 49.85470 -98.84178 18533 ft 370 kts 90°
2026-05-04 19:52 49.85252 -98.80215 18172 ft 368 kts 90°
2026-05-04 19:52 49.85034 -98.76268 17776 ft 366 kts 90°
2026-05-04 19:52 49.84816 -98.72353 17382 ft 364 kts 90°
2026-05-04 19:52 49.84598 -98.68490 17225 ft 354 kts 90°
2026-05-04 19:53 49.84384 -98.64716 16925 ft 350 kts 90°
2026-05-04 19:53 49.84172 -98.60977 16597 ft 347 kts 90°
2026-05-04 19:53 49.83961 -98.57264 16237 ft 345 kts 90°
2026-05-04 19:53 49.83750 -98.53573 15905 ft 343 kts 90°
2026-05-04 19:54 49.83540 -98.49908 15557 ft 340 kts 90°
2026-05-04 19:54 49.83329 -98.46268 15220 ft 338 kts 90°
2026-05-04 19:54 49.83118 -98.42648 14881 ft 336 kts 90°
2026-05-04 19:54 49.82908 -98.39051 14554 ft 334 kts 91°
2026-05-04 19:55 49.82697 -98.35473 14208 ft 333 kts 91°
2026-05-04 19:55 49.82486 -98.31905 13864 ft 332 kts 91°
2026-05-04 19:55 49.82275 -98.28351 13525 ft 331 kts 91°
2026-05-04 19:55 49.82063 -98.24811 13155 ft 329 kts 91°
2026-05-04 19:56 49.81851 -98.21287 12806 ft 327 kts 91°
2026-05-04 19:56 49.81640 -98.17794 12481 ft 325 kts 91°
2026-05-04 19:56 49.81429 -98.14318 12145 ft 323 kts 91°
2026-05-04 19:56 49.81219 -98.10869 11818 ft 321 kts 91°
2026-05-04 19:57 49.81010 -98.07445 11490 ft 318 kts 91°
2026-05-04 19:57 49.80800 -98.04042 11172 ft 316 kts 91°
2026-05-04 19:57 49.80592 -98.00707 11058 ft 307 kts 91°
2026-05-04 19:57 49.80457 -97.98548 10947 ft 302 kts 91°
2026-05-04 19:58 49.80237 -97.94229 10553 ft 299 kts 89°
2026-05-04 19:58 49.80139 -97.92115 10363 ft 298 kts 89°
2026-05-04 19:58 49.79990 -97.88932 10137 ft 293 kts 90°
2026-05-04 19:58 49.79840 -97.85834 10023 ft 285 kts 89°
2026-05-04 19:59 49.79691 -97.82798 9789 ft 283 kts 89°
2026-05-04 19:59 49.79541 -97.79761 9513 ft 282 kts 89°
2026-05-04 19:59 49.79391 -97.76754 9235 ft 279 kts 89°
2026-05-04 19:59 49.79242 -97.73764 8955 ft 277 kts 89°
2026-05-04 20:00 49.79093 -97.70806 8699 ft 274 kts 89°
2026-05-04 20:00 49.78944 -97.67869 8417 ft 273 kts 89°
2026-05-04 20:00 49.78801 -97.65033 8165 ft 270 kts 89°
2026-05-04 20:00 49.78653 -97.62144 7895 ft 269 kts 89°
2026-05-04 20:01 49.78506 -97.59266 7635 ft 267 kts 89°
2026-05-04 20:01 49.78358 -97.56412 7379 ft 265 kts 89°
2026-05-04 20:01 49.78189 -97.53575 7119 ft 264 kts 89°
2026-05-04 20:01 49.77998 -97.50718 6866 ft 262 kts 90°
2026-05-04 20:02 49.77809 -97.47919 6615 ft 261 kts 90°
2026-05-04 20:02 49.77624 -97.45164 6373 ft 260 kts 90°
2026-05-04 20:02 49.77436 -97.42376 6104 ft 260 kts 90°
2026-05-04 20:02 49.77250 -97.39601 5845 ft 258 kts 90°
2026-05-04 20:03 49.77064 -97.36870 5712 ft 252 kts 90°
2026-05-04 20:03 49.76882 -97.34188 5606 ft 251 kts 89°
2026-05-04 20:03 49.76701 -97.31492 5512 ft 252 kts 90°
2026-05-04 20:03 49.76340 -97.28839 5306 ft 256 kts 108°
2026-05-04 20:04 49.75562 -97.26366 5127 ft 256 kts 114°
2026-05-04 20:04 49.74726 -97.23936 4889 ft 256 kts 114°
2026-05-04 20:04 49.73900 -97.21497 4668 ft 256 kts 113°
2026-05-04 20:04 49.73098 -97.19048 4426 ft 254 kts 108°
2026-05-04 20:05 49.72843 -97.16420 4150 ft 237 kts 73°
2026-05-04 20:05 49.73393 -97.14157 3917 ft 216 kts 49°
2026-05-04 20:05 49.74290 -97.12385 3670 ft 206 kts 41°
2026-05-04 20:05 49.75232 -97.10750 3409 ft 201 kts 40°
2026-05-04 20:06 49.76157 -97.09171 3137 ft 195 kts 36°
2026-05-04 20:06 49.77257 -97.08219 2985 ft 174 kts
2026-05-04 20:06 49.78393 -97.08314 2956 ft 160 kts 334°
2026-05-04 20:06 49.79332 -97.09282 2970 ft 165 kts 325°
2026-05-04 20:07 49.80283 -97.10306 2969 ft 166 kts 325°
2026-05-04 20:07 49.81196 -97.11387 2954 ft 165 kts 321°
2026-05-04 20:07 49.82084 -97.12566 2844 ft 170 kts 320°
2026-05-04 20:07 49.82947 -97.13751 2638 ft 160 kts 320°
2026-05-04 20:08 49.83742 -97.14846 2448 ft 144 kts 320°
2026-05-04 20:08 49.84463 -97.15837 2236 ft 135 kts 320°
2026-05-04 20:08 49.85152 -97.16785 2059 ft 128 kts 320°
2026-05-04 20:08 49.85827 -97.17717 1890 ft 131 kts 319°
2026-05-04 20:09 49.86513 -97.18693 1722 ft 137 kts 320°
2026-05-04 20:09 49.87247 -97.19693 1460 ft 143 kts 321°
2026-05-04 20:09 49.87977 -97.20705 1263 ft 138 kts 321°
2026-05-04 20:09 49.88693 -97.21674 1046 ft 134 kts 321°
2026-05-04 20:10 49.89375 -97.22599 899 ft 129 kts 320°
2026-05-04 20:10 49.90074 -97.23551 788 ft 129 kts 319°
2026-05-04 20:10 49.90579 -97.24244 788 ft 61 kts 318°
2026-05-04 20:10 49.90714 -97.24353 788 ft 15 kts 42°
2026-05-04 20:11 49.90750 -97.24208 786 ft 14 kts 79°
2026-05-04 20:11 49.90764 -97.24097 786 ft 9 kts 79°
2026-05-04 20:11 49.90768 -97.24066 787 ft 0 kts 79°
2026-05-04 20:12 49.90776 -97.23997 788 ft 13 kts 79°
2026-05-04 20:12 49.90801 -97.23811 787 ft 21 kts 78°
2026-05-04 20:12 49.90833 -97.23563 785 ft 26 kts 78°
2026-05-04 20:12 49.90864 -97.23331 785 ft 24 kts 79°
2026-05-04 20:13 49.90880 -97.23078 785 ft 25 kts 85°
2026-05-04 20:13 49.90891 -97.22837 785 ft 5 kts 101°
2026-05-04 20:13 49.90851 -97.22773 785 ft 13 kts 131°
2026-05-04 20:13 49.90788 -97.22643 785 ft 13 kts 124°
2026-05-04 20:14 49.90763 -97.22513 785 ft 13 kts 87°
2026-05-04 20:14 49.90766 -97.22382 785 ft 11 kts 92°
2026-05-04 20:14 49.90760 -97.22268 785 ft 6 kts 98°
2026-05-04 20:14 49.90741 -97.22214 785 ft 6 kts 155°
2026-05-04 20:15 49.90700 -97.22217 785 ft 6 kts 190°
2026-05-04 20:15 49.90687 -97.22220 785 ft 0 kts 190°
2026-05-04 20:15 49.90684 -97.22221 785 ft 0 kts 190°
2026-05-04 20:15 49.90681 -97.22222 785 ft 0 kts 189°
2026-05-04 20:16 49.90678 -97.22223 785 ft 0 kts 189°
2026-05-04 20:16 49.90677 -97.22223 785 ft 0 kts 189°